STARLINK-35215, 65813

Orbit data source: Space-Track

STARLINK-35215, 65813 is a payload satellite owned by SpaceX/Seattle (US) in SSO that was launched on Fri, 26 Sep 2025 UTC via an FALCON 9 launch vehicle from the Air Force Western Test Range (AFWTR). Payload-class satellites include a variety of spacecraft equipped with specific instruments for various scientific and technological missions. These include communications satellites like Starlink; space stations such as the ISS; scientific satellites like the Hubble; Earth observation satellites from companies like Planet Labs, Umbra, and HawkEye 360; GPS; miniature CubeSats for education and research; and military/defense satellites.

Loading next visibility...
Identifier
65813, 2025-218Y
Orbit
SSO
Country
Flag of USUS
Related business
Manufacturer
SpaceX/Seattle
Mission
Operational Commercial Communications
Bus & Motor
STARLINK V2MO, Unknown motor
Mass
575 kg wet, ~530 kg dry
Launch date (UTC)
2025-09-26 (2 months ago)
Launch vehicle
FALCON 9
Launch site
Air Force Western Test Range (AFWTR)
Object type
Payload
Rocket body
Debris
Shape & HBR
Box + 2 Pan, 17.7 m
Radar Cross Section
36.964 m²

Expand to show TLE details & history
Last TLE update: 15 hours ago

TLE from 15 hours ago
0 STARLINK-35215
1 65813U 25218Y   25340.57539536  .00019430  00000-0  13474-2 0  9996
2 65813  97.6011 201.2474 0001782  92.9488 267.1943 15.05640291 10968
Epoch: 2025-12-06T13:48Z
TLE epoch observation values (Epoch: 2025-12-06T13:48:34.159Z)
Latitude
0.00003°
Longitude
-81.4961°
Altitude
552.667 km
Speed
7.585 km/s
True Right ascension
13h 24m 59s
True Declination
0° 00' 00"
Sunlit
Object was in daylight at epoch
Visualization orbit readout
Latitude
Unknown
Longitude
Unknown
Altitude
Unknown
Speed
Unknown
Apparent Right ascension
Unknown
Apparent Declination
Unknown
Sunlit
N/A
Visualization observer readout
Local Sidereal Time
03:22:55
Azimuth
Unknown
Elevation
Unknown
Doppler factor
Unknown
Orbital elements
Apogee altitude
547.768 km
Perigee altitude
545.3 km
Semi-major axis
6,924.671 km
Eccentricity
0.00018
Inclination
97.6011°
RAAN
201.2474°
Arg. of periapsis
92.9488°
True anomaly
267.1739°
Mean anomaly
267.1943°
Eccentric anomaly
267.1841°
Mean motion
3.76656 °/min
Orbital period
95.58 mins
BSTAR
0.0013474
Loading maneuver chart data...
Computing Atmospheric mass density...
Loading historical data...
Loading historical data...
Loading historical data...
Loading historical data...
Loading historical data...
Loading historical data...
Loading historical data...

Documentation

Showing up to 5 results
|